Date,TemperatureHighF,TemperatureAvgF,TemperatureLowF,DewpointHighF,DewpointAvgF,DewpointLowF,HumidityHigh,HumidityAvg,HumidityLow,PressureMaxIn,PressureMinIn,WindSpeedMaxMPH,WindSpeedAvgMPH,GustSpeedMaxMPH,PrecipitationSumIn
2013-7-1,77.8,62.6,48.7,54.3,49.8,39.1,97,66,38,28.24,28.14,8,1,10,0.00
2013-7-2,78.8,61.2,40.1,51.3,43.5,35.8,97,57,28,28.20,28.09,8,0,10,0.00
2013-7-3,83.0,65.2,46.0,57.3,49.5,38.2,97,60,35,28.09,27.97,10,1,11,0.00
2013-7-4,81.4,69.5,58.4,63.2,53.3,35.7,94,59,35,27.97,27.88,14,2,15,0.23
2013-7-5,82.0,73.6,62.4,65.1,61.5,58.4,90,67,50,27.89,27.81,16,3,18,0.00
2013-7-6,84.4,70.5,64.0,69.7,65.0,61.1,98,84,56,27.93,27.83,14,1,14,1.42
2013-7-7,68.1,64.3,57.8,65.8,63.0,56.1,99,95,90,27.99,27.89,8,1,9,0.07
2013-7-8,78.6,64.7,55.6,66.1,60.5,54.8,98,88,60,28.03,27.97,6,1,7,0.01
2013-7-9,72.2,65.6,57.9,67.7,62.5,55.8,97,90,79,28.00,27.77,16,1,16,0.20
2013-7-11,78.7,72.2,61.7,59.5,56.7,52.6,80,59,45,28.09,27.98,12,2,12,0.00
2013-7-12,78.9,70.6,59.4,65.8,60.9,53.8,85,72,60,28.00,27.91,22,2,22,0.00
2013-7-13,82.8,70.9,64.2,72.8,66.5,62.2,96,86,70,28.11,27.92,12,2,16,0.08
2013-7-14,68.7,66.2,63.8,65.8,64.0,60.0,98,93,81,28.23,28.09,15,1,15,0.73
2013-7-15,69.3,66.8,64.6,68.0,65.6,62.4,99,96,92,28.27,28.21,9,0,11,0.09
2013-7-16,86.9,75.2,63.1,73.5,66.6,61.5,98,77,51,28.22,28.10,15,2,16,0.11
2013-7-17,76.5,70.4,62.7,69.9,66.5,61.5,97,88,70,28.23,28.13,7,0,7,0.18
2013-7-18,76.2,66.3,62.4,72.5,65.3,61.2,99,97,87,28.13,27.68,13,1,18,2.56
2013-7-19,72.8,66.2,60.5,65.6,58.6,48.7,99,79,50,27.83,27.61,19,3,19,0.02
2013-7-20,65.0,55.3,45.6,50.9,46.3,42.8,93,73,53,28.03,27.83,11,1,13,0.00
2013-7-21,69.0,56.3,43.7,53.3,46.7,40.5,94,72,50,28.03,27.86,11,1,11,0.00
2013-7-22,76.0,62.0,51.9,66.3,56.0,44.3,100,81,60,27.86,27.58,20,5,21,0.05
2013-7-23,66.4,56.7,46.6,51.5,48.2,45.1,96,74,56,28.02,27.78,20,4,20,0.00
2013-7-24,71.5,57.8,43.4,59.3,51.2,42.6,99,81,47,28.04,27.92,13,1,14,0.07
2013-7-25,68.2,59.0,53.9,61.9,57.2,53.1,98,94,78,27.93,27.88,10,1,11,0.36
2013-7-26,55.7,48.1,43.6,55.2,46.8,41.1,98,95,89,28.05,27.88,19,3,19,0.68
2013-7-27,50.9,46.8,43.7,50.0,45.9,42.7,98,97,95,27.98,27.83,16,3,19,0.32
2013-7-28,63.4,53.4,46.2,54.5,48.9,45.7,100,86,58,28.02,27.90,20,3,20,0.11
2013-7-29,74.8,60.0,41.7,57.0,50.7,40.9,99,74,43,28.09,28.01,8,0,10,0.00
2013-7-30,67.0,64.2,59.1,61.5,57.7,55.3,96,80,70,28.09,28.00,9,0,10,0.06
2013-7-31,69.9,63.1,53.9,60.2,54.6,48.6,98,76,49,28.01,27.89,22,3,22,0.00